Back to catalog

PICOSAT 6

AliveScienceLEO
NORAD 26094·PAYLOAD·🇺🇸 United States

Launched Jan 27, 2000 from Vandenberg Space Force Base

Loading…

Next Passes (next 24 hours)

TLE

FreshSource: Space-Track

Epoch: Sep 14, 2026, 07:31 UTC

1 26094U 00004M   26257.31371248  .00000374  00000-0  11828-3 0  9993
2 26094 100.2130 292.6799 0030942 289.7812  70.0039 14.47387508398128

Track PICOSAT 6 in real time with AllMySat

Download on the App Store